User: anonymous   Login
Location: Caltech
(34.1382°N, 118.1253°W)
Time: 20:09:14
(UTC-08:00)
Language:

Iridium 65 - Orbit

View from above orbital plane
View from above orbital plane
View from above satellite
View from above satellite

Ground track
Ground track

The orbit data is extracted from the following two-line orbital elements,

1 25288U 98021D   14331.31788166  .00000675  00000-0  23413-3 0    59
2 25288 086.3977 253.7670 0002268 101.8612 051.8987 14.34216638871309
Epoch (UTC): 27 November 2014 07:37:44
Eccentricity: 0.0002268
inclination: 86.3977°
perigee height: 776 km
apogee height: 779 km
right ascension of ascending node: 253.7670°
argument of perigee: 101.8612°
revolutions per day: 14.34216638
mean anomaly at epoch: 51.8987°
orbit number at epoch: 87130

The dashed part of the orbit path shows where the satellite is in the earth's shadow,  

DLR